Regional Weather Roundup
Issued by NWS

Home | Current Version | Previous Version | Graphics & Text | Print | Product List | Glossary On
Versions: 1 2 3 4 5 6 7 8 9 10 11 12 13 14 15 16 17 18 19 20 21 22 23 24 25 26 27 28 29 30 31 32 33 34 35 36 37 38 39 40 41 42 43 44 45 46 47 48 49 50
000
ASUS43 KDMX 182107
RWRIA

WEATHER ROUNDUP FOR IOWA
NATIONAL WEATHER SERVICE DES MOINES IA
400 PM CDT SAT APR 18 2015

NOTE: "FAIR" INDICATES FEW OR NO CLOUDS BELOW 12,000 FEET WITH NO
SIGNIFICANT WEATHER AND/OR OBSTRUCTIONS TO VISIBILITY.

* - THESE STATIONS ARE NOT NWS STATIONS...THUS NOT UNDER NWS
QUALITY CONTROL.  THEY ALSO DO NOT REPORT WEATHER SUCH
AS PRECIPITATION OR FOG.

IAZ001>003-012>014-020>022-031>034-043>046-182200-
   NORTHWEST IOWA

CITY           SKY/WX    TMP DP  RH WIND       PRES   REMARKS
CARROLL *      LGT RAIN  59  59 100 NE7       29.91S
CHEROKEE *     RAIN      57  57 100 NE6       29.89F
DENISON *      DRIZZLE   59  59 100 CALM      29.88S
LE MARS *      CLOUDY    61  57  88 E7        29.88S
ORANGE CITY *  LGT RAIN N/A N/A N/A E12       29.86F
SHELDON *      LGT RAIN  57  57 100 E13       29.87F
SIOUX CITY     CLOUDY    62  57  83 SE12      29.87S
SPENCER        RAIN      57  55  93 W7        29.91F FOG
STORM LAKE *   LGT RAIN  57  57 100 SE7       29.90F
$$

IAZ055>058-069>071-079>083-090>094-182200-
   SOUTHWEST IOWA

CITY           SKY/WX    TMP DP  RH WIND       PRES   REMARKS
ATLANTIC *     CLOUDY    61  61 100 E7        29.90R
AUDUBON *      RAIN      59  55  88 NE6       29.91R
CLARINDA *     LGT RAIN  63  61  94 N7        29.89F
COUNCIL BLFS * DRIZZLE   59  59 100 CALM      29.87F
CRESTON *      CLOUDY    61  61 100 N9        29.90R
HARLAN  *      LGT RAIN  59  59 100 NE5       29.90F
LAMONI         CLOUDY    65  59  81 W6        29.89F
RED OAK *      CLOUDY    63  61  94 CALM      29.88S
SHENANDOAH *   CLOUDY    63  61  94 NE6       29.88S
$$

IAZ047>049-059>061-072>074-084-182200-
   CENTRAL IOWA

CITY           SKY/WX    TMP DP  RH WIND       PRES   REMARKS
AMES           CLOUDY    63  58  83 SW14      29.90R
ANKENY *       LGT RAIN  63  59  88 S9        29.90R
CHARITON *     SUNNY     64  59  82 W8        29.88F
DES MOINES     LGT RAIN  62  58  86 S7        29.89F
GRINNELL*      CLOUDY    73  54  49 SE15      29.88F
KNOXVILLE *    MOSUNNY   68  59  73 SW10G18   29.87F
MARSHALLTOWN   CLOUDY    73  55  53 SE13      29.87F
PELLA *        CLOUDY    72  61  68 SW7       29.88F
PERRY *        RAIN      59  59 100 W12       29.92S
$$

IAZ004>006-015-016-023>025-035-036-182200-
   NORTH CENTRAL IOWA

CITY           SKY/WX    TMP DP  RH WIND       PRES   REMARKS
ALGONA *       PTSUNNY   59  54  82 E10       29.89S
CLARION *      PTSUNNY   64  59  82 E12G18    29.88F
ESTHERVILLE    LGT RAIN  55  55 100 NE13      29.87F FOG
FORT DODGE *   CLOUDY    57  52  82 S7        29.92R
MASON CITY     LGT RAIN  66  54  65 S18G24    29.90S
FOREST CITY *  CLOUDY    63  52  67 S10       29.90R
IOWA FALLS *   PTSUNNY   72  54  53 SE17G23   29.89S
$$

IAZ007>011-017>019-026>030-037>042-050>054-066-182200-
   NORTHEAST IOWA

CITY           SKY/WX    TMP DP  RH WIND       PRES   REMARKS
CEDAR RAPIDS   CLOUDY    76  54  46 S13       29.89F
CHARLES CITY * MOSUNNY   75  46  35 SE18G29   29.90F
CLINTON *      PTSUNNY   73  46  38 E14G21    29.97S
DECORAH *      PTSUNNY   73  43  33 SE12G21   29.95F
DUBUQUE        MOSUNNY   72  40  31 E20       29.97F
MONTICELLO *   SUNNY     75  46  35 E17G25    29.93F
OELWEIN *      MOSUNNY   77  48  36 SE20G28   29.91F
WATERLOO       CLOUDY    76  50  40 SE18G24   29.88F
$$

IAZ064-065-067-068-078-182200-
   EAST CENTRAL IOWA

CITY           SKY/WX    TMP DP  RH WIND       PRES   REMARKS
DAVENPORT      CLOUDY    71  52  50 E18       29.94F
IOWA CITY      CLOUDY    76  55  48 SE13      29.91F
MT. PLEASANT * PTSUNNY   77  50  38 SE14G20   29.90F
MUSCATINE *    PTSUNNY   79  54  41 S12       29.90F
QUAD CITIES    PTSUNNY   73  54  51 NE16      29.91S
$$

IAZ062-063-075>077-085>089-095>099-182200-
   SOUTHEAST IOWA

CITY           SKY/WX    TMP DP  RH WIND       PRES   REMARKS
BURLINGTON     MOSUNNY   78  55  44 SE10      29.89F
FAIRFIELD *    MOSUNNY   77  52  41 SE18G26   29.88F
FORT MADISON * MOSUNNY   77  54  44 S10G17    29.90F
KEOKUK *       MOSUNNY   79  55  44 SE13G18   29.88F
OSKALOOSA *    PTSUNNY   77  52  41 S20       29.87F
CENTERVILLE *  SUNNY     72  59  64 S6        29.89F
OTTUMWA        LGT RAIN  72  57  59 S14G25    29.87F
WASHINGTON *   SUNNY     82  54  36 S17G28    29.89S HX  81
$$

ABBREVIATIONS USED IN REMARKS
   TC - TEMPERATURES IN CELSIUS
  WCI - WIND CHILL INDEX
   HX - HEAT INDEX
  VSB - VISIBILITY
$$



USA.gov is the U.S. government's official web portal to all federal, state and local government web resources and services.